GW6176 Weather Reports


Display with metric or nautical units.
time (UTC)temp
F
wind
direction
speed
MPH
gust
MPH
rain 1hr
in
rain 24hr
in
rain mn
in
humidity
%
barometer
mb
20260507012256 52 198 1.0 2.0 0.00 0.00 0.00 54 1014.5
20260507011754 52 157 2.0 2.0 0.00 0.00 0.00 51 1014.5
20260507011250 52 130 1.0 2.0 0.00 0.00 0.00 51 1014.5
20260507010750 52 126 0.0 2.0 0.00 0.00 0.00 51 1014.5
20260507010246 52 203 2.0 3.0 0.00 0.00 0.00 51 1014.4
20260507005744 52 162 2.0 2.0 0.00 0.00 0.00 51 1014.2
20260507005240 52 119 0.0 2.0 0.00 0.00 0.00 52 1014.3
20260507004736 52 184 2.0 3.0 0.00 0.00 0.00 51 1014.1
20260507004235 53 150 2.0 2.0 0.00 0.00 0.00 48 1014.2
20260507003730 52 357 1.0 3.0 0.00 0.00 0.00 48 1013.8
20260507003226 53 154 2.0 2.0 0.00 0.00 0.00 47 1013.7
20260507002722 53 15 1.0 5.0 0.00 0.00 0.00 45 1013.9
20260507002218 53 22 2.0 3.0 0.00 0.00 0.00 46 1014.0
20260507001715 53 235 4.0 4.0 0.00 0.00 0.00 46 1014.0
20260507001212 53 267 6.0 13.0 0.00 0.00 0.00 45 1014.0
20260507000708 54 273 2.0 3.0 0.00 0.00 0.00 44 1014.1
20260507000205 54 279 2.0 4.0 0.00 0.00 0.00 44 1013.9
20260506235702 54 290 3.0 5.0 0.00 0.00 0.00 44 1013.9
20260506235157 54 247 0.0 5.0 0.00 0.00 0.00 45 1013.9
20260506234654 54 38 0.0 2.0 0.00 0.00 0.00 45 1013.8
20260506234151 55 149 1.0 3.0 0.00 0.00 0.00 44 1014.0
20260506233648 55 291 3.0 5.0 0.00 0.00 0.00 44 1014.0
20260506233145 55 192 2.0 3.0 0.00 0.00 0.00 44 1013.9
20260506232641 55 257 3.0 8.0 0.00 0.00 0.00 42 1014.0
20260506232137 55 258 4.0 4.0 0.00 0.00 0.00 43 1014.0
20260506231634 55 198 2.0 4.0 0.00 0.00 0.00 43 1013.8
20260506231133 55 145 2.0 4.0 0.00 0.00 0.00 43 1014.1
20260506230629 55 271 4.0 5.0 0.00 0.00 0.00 42 1014.0
20260506230126 55 242 3.0 6.0 0.00 0.00 0.00 41 1014.2
20260506225622 55 299 5.0 6.0 0.00 0.00 0.00 42 1014.1
20260506225119 55 232 4.0 8.0 0.00 0.00 0.00 41 1014.0
20260506224616 55 152 2.0 4.0 0.00 0.00 0.00 39 1013.8
20260506224112 56 234 3.0 4.0 0.00 0.00 0.00 41 1014.0
20260506223608 56 293 4.0 6.0 0.00 0.00 0.00 38 1014.0
20260506223105 56 267 6.0 7.0 0.00 0.00 0.00 38 1014.1
20260506222602 56 211 2.0 2.0 0.00 0.00 0.00 38 1014.1
20260506222058 56 219 0.0 3.0 0.00 0.00 0.00 37 1013.9
20260506221556 56 39 3.0 5.0 0.00 0.00 0.00 39 1014.0
20260506221054 56 292 5.0 7.0 0.00 0.00 0.00 38 1013.9
20260506220549 56 279 1.0 2.0 0.00 0.00 0.00 40 1014.1
20260506220045 55 246 2.0 5.0 0.00 0.00 0.00 40 1014.0
20260506215542 55 355 1.0 6.0 0.00 0.00 0.00 39 1013.7
20260506215037 55 342 3.0 7.0 0.00 0.00 0.00 40 1013.8
20260506214535 55 307 2.0 7.0 0.00 0.00 0.00 39 1014.0
20260506214032 56 244 3.0 5.0 0.00 0.00 0.00 40 1013.8
20260506213530 55 206 5.0 9.0 0.00 0.00 0.00 38 1014.1
20260506213027 56 349 7.0 10.0 0.00 0.00 0.00 39 1014.0
20260506212524 56 4 4.0 7.0 0.00 0.00 0.00 41 1014.0
20260506212019 56 355 4.0 4.0 0.00 0.00 0.00 40 1013.8
20260506211515 56 307 4.0 6.0 0.00 0.00 0.00 40 1014.0
20260506211013 56 330 3.0 8.0 0.00 0.00 0.00 39 1013.9
20260506210508 56 252 4.0 7.0 0.00 0.00 0.00 39 1013.9
20260506210006 57 257 3.0 8.0 0.00 0.00 0.00 37 1013.9
20260506205502 57 244 5.0 14.0 0.00 0.00 0.00 39 1014.3
20260506204957 56 323 9.0 17.0 0.00 0.00 0.00 38 1014.1
20260506204456 56 308 6.0 13.0 0.00 0.00 0.00 38 1014.0
20260506203953 56 259 4.0 13.0 0.00 0.00 0.00 39 1014.0
20260506203450 56 331 10.0 14.0 0.00 0.00 0.00 39 1013.9
20260506202947 56 69 0.0 8.0 0.00 0.00 0.00 37 1013.8
20260506202444 56 303 5.0 11.0 0.00 0.00 0.00 38 1013.9
20260506201940 57 215 6.0 9.0 0.00 0.00 0.00 37 1013.9
20260506201438 57 294 6.0 10.0 0.00 0.00 0.00 38 1013.9
20260506200934 56 38 5.0 8.0 0.00 0.00 0.00 37 1014.2
20260506200431 56 341 5.0 6.0 0.00 0.00 0.00 36 1014.0
20260506195927 56 135 2.0 8.0 0.00 0.00 0.00 39 1014.0
20260506195424 56 349 4.0 9.0 0.00 0.00 0.00 37 1014.2
20260506194921 56 251 10.0 12.0 0.00 0.00 0.00 37 1014.2
20260506194418 56 308 6.0 11.0 0.00 0.00 0.00 37 1014.0
20260506193915 55 295 9.0 9.0 0.00 0.00 0.00 39 1014.1
20260506193412 56 277 4.0 17.0 0.00 0.00 0.00 36 1014.4
20260506192908 56 338 9.0 11.0 0.00 0.00 0.00 38 1014.2
20260506192405 56 253 3.0 8.0 0.00 0.00 0.00 41 1014.3
20260506191902 56 214 5.0 11.0 0.00 0.00 0.00 37 1014.3
20260506191358 57 312 3.0 8.0 0.00 0.00 0.00 38 1014.3
20260506190855 57 252 5.0 9.0 0.00 0.00 0.00 40 1014.1
20260506190352 56 287 4.0 10.0 0.00 0.00 0.00 39 1014.3
20260506185849 55 180 6.0 7.0 0.00 0.00 0.00 40 1014.2
20260506185346 55 1 3.0 5.0 0.00 0.00 0.00 39 1014.4
20260506184843 55 249 3.0 9.0 0.00 0.00 0.00 41 1014.4
20260506184340 54 358 4.0 7.0 0.00 0.00 0.00 41 1014.4
20260506183837 54 244 2.0 8.0 0.00 0.00 0.00 41 1014.3
20260506183332 54 215 6.0 6.0 0.00 0.00 0.00 41 1014.5
20260506182830 54 261 6.0 8.0 0.00 0.00 0.00 39 1014.6
20260506182327 54 178 4.0 7.0 0.00 0.00 0.00 39 1014.4
20260506181825 54 238 6.0 10.0 0.00 0.00 0.00 41 1014.5
20260506181322 54 57 1.0 4.0 0.00 0.00 0.00 41 1014.3
20260506180819 54 192 3.0 5.0 0.00 0.00 0.00 39 1014.6
20260506180315 54 271 2.0 11.0 0.00 0.00 0.00 40 1014.4
20260506175812 54 213 6.0 9.0 0.00 0.00 0.00 42 1014.2
20260506175309 54 352 6.0 9.0 0.00 0.00 0.00 39 1014.4
20260506174806 54 301 2.0 6.0 0.00 0.00 0.00 40 1014.3
20260506174303 54 329 4.0 7.0 0.00 0.00 0.00 40 1014.3
20260506173801 54 339 3.0 6.0 0.00 0.00 0.00 41 1014.5
20260506173257 54 24 6.0 8.0 0.00 0.00 0.00 41 1014.4
20260506172754 54 242 3.0 9.0 0.00 0.00 0.00 41 1014.4
20260506172251 54 9 4.0 6.0 0.00 0.00 0.00 40 1014.2
20260506171748 54 323 5.0 10.0 0.00 0.00 0.00 41 1014.1
20260506171245 54 5 5.0 11.0 0.00 0.00 0.00 40 1014.0
20260506170743 54 287 3.0 9.0 0.00 0.00 0.00 41 1014.3
20260506170239 54 5 4.0 9.0 0.00 0.00 0.00 38 1014.3
20260506165738 54 28 4.0 6.0 0.00 0.00 0.00 41 1014.3
20260506165234 54 7 6.0 6.0 0.00 0.00 0.00 42 1014.4
20260506164732 54 344 5.0 16.0 0.00 0.00 0.00 39 1014.2
20260506164229 54 323 9.0 10.0 0.00 0.00 0.00 40 1014.2
20260506163725 54 238 6.0 6.0 0.00 0.00 0.00 41 1014.4
20260506163220 53 257 6.0 9.0 0.00 0.00 0.00 40 1014.2
20260506162716 53 38 3.0 5.0 0.00 0.00 0.00 41 1014.5
20260506162214 53 340 6.0 8.0 0.00 0.00 0.00 40 1014.5
20260506161711 54 344 5.0 8.0 0.00 0.00 0.00 39 1014.5
20260506161208 54 338 8.0 13.0 0.00 0.00 0.00 37 1014.4
20260506160706 55 95 1.0 9.0 0.00 0.00 0.00 40 1014.4
20260506160202 54 164 2.0 9.0 0.00 0.00 0.00 40 1014.6
20260506155701 54 337 7.0 13.0 0.00 0.00 0.00 39 1014.5
20260506155158 54 271 4.0 6.0 0.00 0.00 0.00 40 1014.2
20260506153300 54 350 8.0 13.0 0.00 0.00 0.00 38 1014.6
20260506152756 53 16 2.0 9.0 0.00 0.00 0.00 38 1014.4
20260506152254 53 11 7.0 12.0 0.00 0.00 0.00 39 1014.3
20260506151753 53 350 11.0 12.0 0.00 0.00 0.00 40 1014.4
20260506151249 54 359 8.0 13.0 0.00 0.00 0.00 39 1014.5
20260506150745 53 344 5.0 9.0 0.00 0.00 0.00 41 1014.2
20260506150243 52 47 6.0 11.0 0.00 0.00 0.00 40 1014.1
20260506145739 53 298 10.0 11.0 0.00 0.00 0.00 42 1014.2
20260506145236 53 46 10.0 12.0 0.00 0.00 0.00 41 1014.0
20260506144733 52 10 7.0 11.0 0.00 0.00 0.00 43 1014.3
20260506144230 52 334 10.0 14.0 0.00 0.00 0.00 39 1014.1
20260506143728 52 347 9.0 14.0 0.00 0.00 0.00 41 1013.9
20260506143225 52 30 9.0 11.0 0.00 0.00 0.00 43 1013.9
20260506142724 52 13 9.0 11.0 0.00 0.00 0.00 46 1013.8
20260506142221 52 339 8.0 10.0 0.00 0.00 0.00 44 1013.7
20260506141719 51 340 8.0 13.0 0.00 0.00 0.00 44 1013.8
20260506141217 52 350 9.0 13.0 0.00 0.00 0.00 45 1013.7
20260506140715 51 10 5.0 7.0 0.00 0.00 0.00 50 1013.7
20260506140211 51 49 7.0 12.0 0.00 0.00 0.00 46 1013.8
20260506135708 51 57 9.0 14.0 0.00 0.00 0.00 48 1013.7
20260506135204 51 10 7.0 11.0 0.00 0.00 0.00 47 1013.7
20260506134701 51 32 7.0 9.0 0.00 0.00 0.00 50 1013.6
20260506134157 50 6 6.0 9.0 0.00 0.00 0.00 48 1013.6
20260506133655 50 40 7.0 12.0 0.00 0.00 0.00 50 1013.6
20260506133151 50 8 8.0 10.0 0.00 0.00 0.00 48 1013.6
20260506132649 50 357 6.0 9.0 0.00 0.00 0.00 51 1013.5
20260506132145 50 351 5.0 10.0 0.00 0.00 0.00 51 1013.4
20260506131643 50 337 5.0 7.0 0.00 0.00 0.00 53 1013.5
20260506131139 49 328 2.0 8.0 0.00 0.00 0.00 54 1013.4
20260506130636 49 353 3.0 5.0 0.00 0.00 0.00 57 1013.1
20260506130133 49 345 4.0 6.0 0.00 0.00 0.00 55 1013.2
20260506125632 49 12 5.0 6.0 0.00 0.00 0.00 59 1013.0
20260506125129 48 32 3.0 7.0 0.00 0.00 0.00 60 1013.0
20260506124627 47 31 2.0 6.0 0.00 0.00 0.00 61 1012.9
20260506124124 47 22 4.0 8.0 0.00 0.00 0.00 61 1012.8
20260506123622 48 38 2.0 4.0 0.00 0.00 0.00 64 1012.9
20260506123120 48 6 6.0 9.0 0.00 0.00 0.00 62 1012.6
20260506122616 47 2 4.0 9.0 0.00 0.00 0.00 63 1013.0
20260506122114 47 359 4.0 9.0 0.00 0.00 0.00 64 1013.1
20260506121612 48 49 4.0 8.0 0.00 0.00 0.00 67 1012.9
20260506121108 47 3 4.0 8.0 0.00 0.00 0.00 68 1012.8
20260506120606 47 1 4.0 5.0 0.00 0.00 0.00 70 1012.8
20260506120103 47 339 6.0 6.0 0.00 0.00 0.00 71 1012.8
20260506115601 47 344 4.0 6.0 0.00 0.00 0.00 71 1012.4
20260506115059 47 18 2.0 4.0 0.00 0.00 0.00 75 1012.5
20260506114556 47 353 1.0 3.0 0.00 0.00 0.00 76 1012.3
20260506114054 47 15 3.0 4.0 0.00 0.00 0.00 78 1012.2
20260506113552 46 2 3.0 3.0 0.00 0.00 0.00 79 1012.3
20260506113049 46 309 1.0 2.0 0.00 0.00 0.00 81 1012.1
20260506112546 45 338 0.0 3.0 0.00 0.00 0.00 83 1012.2
20260506112043 45 18 3.0 4.0 0.00 0.00 0.00 84 1011.8
20260506111541 45 74 2.0 3.0 0.00 0.00 0.00 85 1011.7
20260506111038 45 15 2.0 4.0 0.00 0.00 0.00 85 1011.8
20260506110536 45 353 1.0 4.0 0.00 0.00 0.00 86 1011.7
20260506110033 45 0 2.0 3.0 0.00 0.00 0.00 87 1011.4
20260506105529 45 15 2.0 4.0 0.00 0.00 0.00 89 1011.1
20260506105026 45 25 0.0 1.0 0.00 0.00 0.00 90 1011.3
20260506104524 45 212 0.0 2.0 0.00 0.00 0.00 91 1011.4
20260506104022 45 316 3.0 4.0 0.00 0.00 0.00 92 1011.2
20260506103519 45 44 0.0 2.0 0.00 0.00 0.00 92 1011.0
20260506103015 45 348 1.0 2.0 0.00 0.00 0.00 92 1011.0
20260506102514 45 59 2.0 2.0 0.00 0.00 0.00 92 1010.9
20260506102011 45 175 0.0 4.0 0.00 0.00 0.00 92 1011.1
20260506101507 45 227 0.0 2.0 0.00 0.00 0.00 92 1011.1
20260506101005 45 143 0.0 3.0 0.00 0.00 0.00 92 1010.8
20260506100503 45 254 2.0 2.0 0.00 0.00 0.00 93 1010.8
20260506100000 45 308 0.0 2.0 0.00 0.00 0.00 93 1010.8
20260506095459 45 280 1.0 3.0 0.00 0.00 0.00 93 1010.7
20260506094954 45 303 0.0 3.0 0.00 0.00 0.00 93 1011.0
20260506094453 45 256 0.0 3.0 0.00 0.00 0.00 93 1010.7
20260506093950 45 232 0.0 2.0 0.00 0.00 0.00 93 1010.9
20260506093448 45 351 0.0 3.0 0.00 0.00 0.00 94 1010.9
20260506092946 45 206 0.0 3.0 0.00 0.00 0.00 94 1010.9
20260506092444 44 210 2.0 4.0 0.00 0.00 0.00 94 1010.9
20260506091940 44 236 1.0 2.0 0.00 0.00 0.00 94 1010.7
20260506091438 44 135 0.0 1.0 0.00 0.00 0.00 94 1010.6
20260506090935 44 163 1.0 3.0 0.00 0.00 0.00 94 1010.8
20260506090433 44 157 2.0 3.0 0.00 0.00 0.00 94 1010.9
20260506085929 44 197 2.0 3.0 0.00 0.00 0.00 94 1010.9
20260506085426 44 176 1.0 3.0 0.00 0.00 0.00 94 1010.7
20260506084922 44 207 2.0 2.0 0.00 0.00 0.00 94 1010.3
20260506084420 44 150 1.0 2.0 0.00 0.00 0.00 94 1010.4
20260506083915 44 150 0.0 2.0 0.00 0.00 0.00 94 1010.6
20260506083413 44 228 0.0 2.0 0.00 0.00 0.00 94 1010.4
20260506082910 44 173 2.0 2.0 0.00 0.00 0.00 93 1010.6
20260506082407 44 157 1.0 2.0 0.00 0.00 0.00 93 1010.5
20260506081902 44 49 0.0 1.0 0.00 0.00 0.00 93 1010.5
20260506081401 45 178 2.0 3.0 0.00 0.00 0.00 93 1010.6
20260506080858 45 165 2.0 3.0 0.00 0.00 0.00 93 1010.9
20260506080355 45 204 3.0 3.0 0.00 0.00 0.00 92 1010.5
20260506073339 44 88 1.0 2.0 0.00 0.00 0.00 93 1009.7
20260506072836 44 92 1.0 2.0 0.00 0.00 0.00 93 1010.3
20260506072333 44 222 0.0 2.0 0.00 0.00 0.00 93 1010.4
20260506071831 44 261 1.0 3.0 0.00 0.00 0.00 93 1010.2
20260506071329 44 206 1.0 2.0 0.00 0.00 0.00 93 1010.2
20260506070826 44 263 1.0 2.0 0.00 0.00 0.00 93 1010.2
20260506070322 44 219 0.0 0.0 0.00 0.00 0.00 93 1009.8
20260506062300 44 164 2.0 3.0 0.00 0.00 0.00 94 1010.5
20260506061755 44 151 2.0 2.0 0.00 0.00 0.00 94 1010.3
20260506061253 45 161 0.0 2.0 0.00 0.00 0.00 94 1010.8
20260506060751 44 212 2.0 4.0 0.00 0.00 0.00 94 1010.8
20260506060248 44 202 1.0 2.0 0.00 0.00 0.00 94 1010.8
20260506051220 44 152 2.0 2.0 0.00 0.00 0.00 95 1010.7
20260506050718 45 137 0.0 2.0 0.00 0.00 0.00 95 1011.1
20260506050215 45 187 2.0 2.0 0.00 0.00 0.00 95 1011.0
20260506044706 44 138 1.0 1.0 0.02 0.00 0.00 94 1010.6
20260506044203 44 147 0.0 2.0 0.00 0.00 0.00 94 1010.7
20260506043700 44 141 0.0 2.0 0.00 0.00 0.00 94 1010.6
20260506043158 44 168 2.0 2.0 0.00 0.00 0.00 94 1010.5
20260506042657 44 158 2.0 2.0 0.00 0.00 0.00 94 1010.4
20260506042155 44 154 2.0 3.0 0.00 0.00 0.00 94 1010.4
20260506041653 44 137 1.0 1.0 0.00 0.00 0.00 93 1010.4
20260506041149 44 132 1.0 2.0 0.00 0.00 0.00 93 1010.5
20260506040647 44 164 1.0 2.0 0.00 0.00 0.00 93 1010.6
20260506040144 44 143 2.0 2.0 0.00 0.00 0.00 92 1010.5
20260506035641 44 253 0.0 1.0 0.00 0.44 0.44 92 1010.5
20260506035137 44 162 1.0 2.0 0.00 0.44 0.44 91 1010.4
20260506034634 44 160 2.0 2.0 0.00 0.44 0.44 90 1010.4
20260506034131 44 134 1.0 2.0 0.00 0.44 0.44 90 1010.3
20260506033629 45 132 1.0 2.0 0.00 0.44 0.44 89 1010.2
20260506033126 45 156 2.0 3.0 0.02 0.44 0.44 88 1010.4
20260506032623 45 150 2.0 2.0 0.02 0.44 0.44 84 1010.4
20260506032120 45 122 2.0 2.0 0.00 0.43 0.43 82 1010.5
20260506031617 45 102 2.0 2.0 0.00 0.43 0.43 81 1010.6
20260506031113 45 92 1.0 2.0 0.00 0.43 0.43 82 1010.5
20260506030612 45 70 1.0 2.0 0.00 0.43 0.43 83 1010.5
20260506030109 45 43 0.0 2.0 0.00 0.43 0.43 83 1010.6
20260506025606 45 37 1.0 2.0 0.00 0.43 0.43 84 1010.5
20260506025102 45 63 0.0 2.0 0.00 0.43 0.43 85 1010.5
20260506024559 45 72 1.0 3.0 0.00 0.43 0.43 88 1010.4
20260506024055 45 64 1.0 2.0 0.00 0.43 0.43 90 1010.2
20260506023551 45 35 1.0 2.0 0.00 0.43 0.43 91 1010.2
20260506023049 45 82 1.0 2.0 0.00 0.43 0.43 92 1010.3
20260506022547 45 68 1.0 2.0 0.00 0.43 0.43 92 1010.2
20260506022044 45 107 0.0 2.0 0.00 0.43 0.43 92 1010.1
20260506021541 44 99 1.0 2.0 0.00 0.43 0.43 91 1010.3
20260506021038 44 122 1.0 2.0 0.00 0.43 0.43 91 1010.3
20260506020536 45 135 1.0 2.0 0.00 0.43 0.43 91 1010.3
20260506020033 44 156 1.0 2.0 0.00 0.43 0.43 90 1010.4
20260506015531 44 134 1.0 2.0 0.00 0.43 0.43 90 1010.3
20260506015027 44 145 2.0 2.0 0.00 0.43 0.43 90 1010.1
20260506014525 44 162 1.0 2.0 0.00 0.43 0.43 89 1010.2
20260506014020 44 169 1.0 3.0 0.00 0.43 0.43 88 1010.4
20260506013519 45 168 2.0 3.0 0.00 0.43 0.43 87 1010.3
20260506013015 45 157 2.0 2.0 0.00 0.43 0.43 84 1010.0